RH
58 46 55 58 49 41 40 34 30 27 29 29 30 26 24 26 27 26 24 25 28 29 25 25 27 24 22 21 18 16 15 16 16 16 18 23 39 56 43 32 39 38 53 58 76
64 56 69 73 60 52 54 44 36 33 33 40 40 39 36 34 33 32 33 34 34 33 31 30 27 22 22 22 20 16 14 14 15 14 15 16 21 35 46 43 36 41 39 52 52
84 62 76 93 53 52 54 52 45 39 34 42 47 44 46 45 44 42 45 47 46 44 40 37 28 24 25 22 22 17 12 12 13 13 14 15 13 17 32 41 37 35 37 43 58
62 70 92 73 52 50 52 53 51 49 45 41 42 43 43 53 56 52 56 56 55 52 40 30 28 26 30 28 25 13 14 12 11 10 11 13 16 14 15 29 38 36 37 38 43
68 94 88 65 52 47 50 46 42 41 46 44 48 53 50 59 68 64 62 56 52 43 36 30 31 34 34 32 24 19 15 14 14 12 11 11 13 15 14 13 27 42 41 42 37
81 82 74 68 52 45 50 46 41 38 42 49 50 60 51 59 76 82 69 58 42 37 34 34 35 41 38 30 18 16 14 12 11 11 12 12 11 12 14 14 12 28 46 50 36
94 83 77 69 58 53 50 46 35 33 33 40 50 62 57 62 69 79 70 70 60 38 39 35 41 37 24 18 15 13 10 9 7 6 7 11 11 10 15 13 13 12 30 51 45
65 68 67 64 57 53 45 41 33 36 39 45 59 66 71 60 64 72 69 46 44 37 34 35 35 30 19 16 12 9 6 5 4 3 4 6 9 13 15 14 13 11 12 38 59
58 56 68 68 57 43 37 39 40 43 45 51 61 67 76 60 62 70 56 49 66 37 33 33 34 23 16 14 8 5 4 4 5 3 4 3 5 9 15 14 14 12 10 18 58
51 54 60 57 50 40 37 40 51 51 53 68 77 79 76 61 64 86 64 61 46 34 35 32 28 18 17 9 6 5 5 4 4 3 4 3 5 7 8 10 14 13 11 11 34
56 58 64 59 51 48 45 52 62 66 74 86 83 82 80 61 70 73 66 56 31 33 36 31 24 18 12 7 6 6 5 5 4 4 4 4 5 6 7 8 10 14 10 11 14
59 54 47 45 42 42 42 59 68 78 74 66 86 92 74 58 70 63 54 41 32 38 33 29 21 19 10 7 6 6 6 5 5 4 4 4 5 6 5 7 9 14 13 11 14
74 61 50 49 45 51 53 51 63 88 76 83 83 86 68 56 68 58 42 34 30 40 34 27 23 18 9 8 7 6 6 6 6 5 4 5 6 6 4 6 8 14 17 14 15
79 70 60 56 55 54 58 55 63 92 51 85 88 80 63 58 67 51 39 33 30 38 36 29 23 15 9 8 8 7 6 7 6 5 4 6 6 6 6 6 9 16 18 14 14
69 66 66 60 70 70 63 49 52 57 73 79 76 72 56 71 56 44 40 33 30 36 37 28 23 14 9 9 9 8 8 8 6 6 6 7 9 6 6 8 8 10 15 15 14
50 57 60 72 69 59 45 52 50 85 85 72 62 66 71 57 44 35 31 28 33 32 33 29 25 13 10 10 9 9 9 9 8 8 7 8 10 10 9 8 9 10 12 16 18
64 61 74 83 58 49 46 58 55 84 71 62 62 76 54 43 36 35 34 32 43 36 35 32 22 12 10 10 10 10 10 10 10 9 8 8 10 11 10 12 12 12 14 18 20
52 65 76 70 55 52 70 71 91 88 61 54 59 61 42 40 41 38 32 36 34 31 32 34 22 12 10 11 10 12 11 12 14 13 11 10 10 11 13 13 14 16 18 21 20
54 61 59 60 59 72 88 79 74 62 53 61 54 45 43 46 41 38 37 40 35 31 32 34 20 12 11 11 11 12 13 12 14 15 16 13 14 13 12 12 16 18 16 19 22
59 60 68 67 89 100 92 77 63 62 82 49 39 48 60 52 52 43 39 37 33 32 31 33 18 12 12 11 11 14 13 14 15 18 20 19 20 17 16 15 17 21 21 18 22
48 64 69 93 100 74 76 61 62 44 38 42 48 55 62 52 43 42 38 33 32 31 33 33 17 12 11 12 13 15 14 16 16 20 22 23 24 23 20 18 16 19 20 21 24
66 81 100 100 71 56 58 44 45 44 52 65 78 71 56 44 45 37 35 34 34 36 36 31 17 12 12 13 15 17 16 17 15 21 24 24 23 26 22 21 19 18 19 19 20
74 72 80 62 46 46 42 43 39 62 76 70 76 69 59 48 49 37 37 38 38 41 42 28 16 12 12 13 16 18 19 20 17 17 26 26 26 27 27 24 23 19 18 18 19
64 53 43 51 42 45 77 75 70 96 88 94 77 60 58 55 47 37 44 39 45 50 42 26 16 12 14 15 16 17 21 21 20 20 24 25 26 25 27 25 23 22 19 16 16
56 46 42 46 64 66 67 70 91 100 82 73 67 62 56 59 43 35 45 46 55 58 42 24 16 12 15 16 17 17 22 23 21 20 22 26 26 24 22 21 19 16 14 14 14
40 34 43 100 78 81 100 91 100 75 79 71 61 61 59 60 44 45 48 50 71 64 36 22 16 12 14 17 18 18 21 21 23 25 21 23 24 23 21 20 20 18 18 17 16
64 77 70 100 94 100 100 96 87 78 72 67 60 63 66 54 51 48 50 53 76 65 34 23 17 13 13 17 19 18 23 22 21 24 25 24 24 25 24 22 20 19 18 16 16
Wind_Speed
43 44 43 43 45 45 44 43 42 44 44 41 41 44 43 42 45 47 48 50 52 53 56 60 64 68 68 67 68 75 78 77 78 83 86 94 98 98 94 87 80 75 70 71 71
43 45 46 44 48 47 44 45 45 45 45 46 47 49 51 50 50 54 54 55 58 61 64 70 73 77 76 76 79 79 82 87 84 88 89 95 99 104 101 95 88 82 77 75 76
44 46 46 46 49 49 47 48 47 47 50 49 52 54 56 55 57 57 59 61 63 66 70 76 81 84 80 80 83 86 81 91 89 90 92 94 99 105 106 102 97 90 84 80 78
44 45 45 50 52 50 49 48 50 50 51 53 54 58 61 60 60 59 62 66 70 73 78 82 85 83 85 84 89 92 90 86 89 93 92 96 97 102 107 108 103 98 92 88 83
45 46 48 53 53 52 52 52 51 54 55 55 57 62 65 60 62 63 66 68 72 76 79 85 88 86 83 88 96 96 89 81 75 93 93 92 99 98 102 109 111 104 100 95 89
45 49 53 55 53 54 53 54 54 53 55 56 60 64 66 64 64 65 69 71 74 80 84 91 89 84 91 96 97 94 86 80 71 66 79 89 92 101 101 106 109 112 106 102 96
49 52 56 55 55 57 55 56 58 56 55 59 63 68 71 68 68 69 72 74 79 85 85 89 82 90 96 97 93 86 81 74 72 69 67 80 87 87 98 111 107 108 113 109 103
51 54 58 56 57 60 59 59 61 61 62 63 66 71 74 73 72 72 74 77 83 84 90 88 87 92 95 93 84 76 62 56 65 63 69 84 73 82 97 106 109 104 111 114 109
52 53 55 57 60 61 61 61 63 66 68 70 71 74 77 76 74 74 76 80 88 90 93 83 85 92 92 84 72 60 52 50 58 53 60 84 82 84 97 103 106 105 104 115 115
52 54 55 58 60 60 63 65 66 69 72 74 76 77 79 79 78 79 80 84 90 90 87 83 88 91 85 76 62 53 50 51 52 49 49 63 66 90 105 110 105 106 104 110 118
56 57 58 58 60 62 66 68 69 69 73 76 77 77 78 83 80 79 81 88 91 91 84 82 88 86 80 68 57 47 44 47 45 42 42 55 62 77 101 112 109 112 106 107 120
60 61 61 62 61 64 66 68 71 74 75 76 77 79 79 85 77 80 86 90 89 88 81 82 85 82 74 65 52 43 42 41 40 38 39 50 58 76 94 107 110 114 112 108 120
63 63 64 64 65 65 68 73 73 76 76 78 79 80 80 84 74 80 85 87 89 91 81 80 82 77 67 59 47 42 38 32 33 34 36 44 52 66 80 97 110 117 117 113 118
64 67 69 68 68 71 71 76 75 77 80 79 79 80 84 79 78 81 83 85 86 88 81 79 79 70 64 53 44 38 33 28 26 30 32 38 48 60 72 83 103 111 115 111 111
67 70 73 72 72 73 76 77 76 80 81 79 79 84 80 74 77 79 81 87 92 84 78 78 75 67 58 44 38 34 28 26 23 23 29 32 36 51 65 76 91 103 109 110 108
70 75 74 74 77 78 82 76 81 79 79 81 82 80 79 79 81 83 83 87 89 80 72 74 71 60 53 39 35 29 25 22 18 19 25 33 40 46 59 68 76 85 94 102 104
76 77 76 74 80 83 79 83 78 77 81 79 74 76 77 81 82 82 86 88 92 85 74 73 67 56 46 35 32 25 23 19 18 18 24 31 38 46 53 57 68 76 82 91 97
78 78 79 81 84 83 81 80 76 79 75 75 77 78 77 87 85 88 88 91 84 75 68 69 65 52 42 34 28 22 19 16 15 16 22 28 39 46 53 57 66 71 76 82 86
79 80 82 82 84 81 83 83 79 74 71 74 75 77 86 92 91 91 90 87 82 69 64 65 59 47 38 33 26 20 18 15 15 16 21 27 34 40 48 55 63 69 72 72 77
82 82 79 82 78 80 83 76 69 71 74 76 74 79 94 94 97 94 87 82 73 65 62 62 54 42 35 31 24 19 16 14 14 15 20 26 30 35 40 50 60 65 68 71 72
82 80 82 79 82 80 73 68 71 74 73 80 79 86 98 100 94 86 83 76 70 60 59 57 48 38 33 28 24 18 15 12 14 15 22 26 31 35 39 46 56 63 67 68 70
79 82 78 80 80 69 66 71 68 77 80 83 82 93 104 96 90 83 78 68 63 58 57 53 44 35 30 27 21 17 15 11 12 15 19 25 29 34 37 42 48 58 64 67 72
84 77 76 74 69 64 71 76 79 86 86 85 89 101 104 89 84 80 71 66 59 54 56 49 40 32 29 25 18 14 13 11 13 16 19 26 31 33 37 41 46 52 58 63 69
77 68 72 72 73 74 77 80 85 84 89 91 99 100 101 88 83 76 68 61 55 52 53 46 37 29 27 23 15 11 11 13 14 16 19 24 31 37 41 45 47 52 57 61 65
82 74 74 80 83 85 85 82 86 88 97 98 101 104 93 86 79 70 64 57 50 50 50 43 34 27 24 19 13 10 8 13 14 16 19 23 29 34 39 43 47 50 55 59 61
71 76 78 81 90 90 86 86 90 97 99 105 104 93 86 81 73 64 57 51 45 47 47 39 31 25 21 15 11 9 10 12 12 14 16 19 24 27 31 34 38 40 42 48 52
72 79 82 82 92 89 90 95 96 102 104 105 96 87 79 75 65 58 51 45 43 45 43 36 28 23 19 12 9 7 8 13 13 14 15 15 16 19 23 27 30 34 40 43 46
Wind_Direction
328 331 333 334 336 335 334 334 336 336 332 331 331 329 325 327 323 320 314 309 305 304 303 301 300 299 291 283 270 255 251 250 245 245 241 243 242 240 237 232 231 231 229 233 231
320 325 327 329 334 331 331 330 334 333 333 333 330 329 330 331 325 319 314 312 311 309 305 305 302 299 295 287 276 264 251 248 248 248 245 240 240 240 237 233 231 229 228 228 230
318 322 323 325 330 330 328 328 330 330 330 331 332 331 329 328 326 319 315 313 310 307 305 304 303 302 298 287 278 270 261 250 247 245 246 246 245 240 239 234 231 228 227 228 229
316 318 318 322 327 327 325 324 326 327 329 330 331 332 329 327 323 318 314 312 309 308 308 307 305 299 295 289 281 275 270 261 250 248 245 242 243 242 239 237 231 229 226 227 227
315 316 316 319 324 326 325 325 325 326 326 330 329 329 331 326 321 317 315 314 312 310 308 307 305 299 292 283 281 282 285 282 265 250 247 244 240 241 241 238 232 228 228 226 225
315 314 314 318 322 326 324 325 325 326 326 326 327 326 329 326 321 317 316 313 314 313 310 309 306 299 291 288 292 294 292 286 276 258 246 243 237 236 239 241 235 228 225 226 224
313 313 314 317 321 324 322 324 324 324 327 327 326 327 328 325 322 318 316 314 313 313 311 311 303 297 294 296 300 295 292 281 270 257 246 237 231 231 232 236 234 228 225 224 223
312 313 315 318 320 322 324 325 325 323 323 324 322 325 327 324 321 318 316 315 316 315 314 311 305 299 301 304 300 298 286 274 259 244 238 231 220 226 229 232 233 229 224 222 222
314 317 318 318 320 322 324 323 324 324 322 322 320 321 324 323 320 317 316 317 317 317 317 312 308 305 308 307 305 296 286 276 267 250 237 227 219 221 223 227 229 230 225 221 220
317 319 319 319 319 321 324 326 321 323 322 320 320 321 321 321 320 317 316 317 317 317 319 316 309 310 312 311 309 300 288 276 266 256 242 233 219 216 218 221 225 228 225 222 220
314 319 318 318 319 320 322 322 321 320 320 320 319 319 321 320 318 317 316 315 321 321 323 319 313 316 317 315 311 300 285 278 272 261 241 231 220 219 215 217 218 223 222 220 218
313 318 319 318 318 319 320 321 318 319 321 319 317 318 319 320 318 318 314 316 323 329 326 319 318 321 317 316 311 300 289 281 274 262 244 230 220 213 220 215 215 219 221 218 216
315 317 318 315 318 318 319 321 319 317 320 316 317 319 318 319 313 317 319 321 321 331 329 322 322 322 318 318 311 302 293 284 271 257 240 229 221 217 218 215 214 216 219 217 214
314 315 317 318 316 319 319 320 319 317 318 316 317 316 317 318 317 320 322 324 325 333 331 324 326 325 321 321 312 304 299 291 270 252 236 223 217 212 217 216 215 216 220 219 215
313 315 315 316 317 319 319 320 319 318 316 317 316 315 318 317 318 324 326 325 328 334 332 326 328 327 322 321 311 306 306 296 277 248 233 216 220 216 213 213 215 217 220 222 218
316 316 315 315 318 318 322 318 319 318 316 317 317 319 320 323 323 323 327 326 332 335 331 328 330 328 324 323 315 310 307 295 280 246 229 214 207 208 214 211 215 219 219 221 220
315 315 315 315 317 320 321 320 319 315 316 319 318 318 321 326 326 326 327 330 334 335 333 331 331 328 326 325 318 314 308 296 272 247 230 214 208 205 212 209 213 215 218 220 221
314 314 313 314 318 320 318 318 315 315 318 317 315 318 321 329 330 328 329 332 335 335 332 332 331 328 328 327 322 316 309 289 267 247 231 219 209 206 206 206 209 214 216 219 221
314 312 315 316 317 316 316 315 316 316 316 317 318 323 327 331 330 330 331 330 334 336 332 333 332 327 329 325 323 315 303 279 257 235 226 220 214 214 210 204 206 211 213 216 218
312 313 315 315 313 311 315 315 315 318 318 323 325 328 333 331 331 330 328 330 335 336 332 334 331 326 329 325 322 312 303 278 254 231 214 217 215 214 213 207 205 210 214 214 213
312 314 314 312 311 314 313 315 316 323 324 327 328 329 330 330 329 329 329 332 335 335 332 335 332 326 328 325 322 314 301 275 242 226 210 209 206 212 210 209 208 209 212 213 212
312 313 309 309 312 313 313 316 316 330 328 329 327 327 330 332 331 331 332 334 335 334 333 335 331 325 326 322 320 314 299 271 236 218 212 209 207 208 211 210 211 212 214 214 214
312 310 309 310 313 313 321 326 324 330 330 327 325 327 332 333 332 333 333 334 335 332 333 335 330 327 323 321 319 310 296 264 236 208 204 203 203 201 206 209 210 213 215 217 218
308 308 316 311 318 323 323 324 327 326 326 324 326 329 331 331 331 333 333 335 334 330 333 334 329 329 323 320 319 313 290 255 232 214 208 204 204 202 203 206 208 209 213 217 219
305 306 324 325 328 327 324 321 321 323 324 323 326 328 331 330 330 332 333 333 331 330 333 333 329 329 326 320 319 313 270 245 236 222 210 206 204 210 212 213 215 216 217 218 219
303 317 320 321 323 323 319 319 317 323 324 325 327 329 331 328 329 329 331 331 331 331 333 334 330 330 326 319 315 302 269 238 226 224 227 214 213 215 219 220 221 223 224 224 223
313 317 318 314 322 316 315 316 318 322 323 326 327 328 329 325 327 328 329 331 330 333 333 335 329 330 325 319 313 296 266 245 231 217 219 227 217 213 216 218 217 217 221 223 225